This demonstration page uses our WeatherBlox Daily Observations layout. Learn more.

Left ArrowRight Arrow

39.08367, -84.50855

Hourly Observations for June 30, 2020

Temp ( °F °C ) Dew Point ( °F °C ) Humidity (%) Winds ( mph kmh ) Pressure ( in mb ) Visibility ( mi km ) Precip ( " mm )
12:53 am 00:53 Clear 75 23.9 71 21.7 88 88 E 3 6 29.93 1014 10 16.0934 0 0
1:28 am 01:28 Mostly Cloudy with Nearby Thunderstorms 75 23.9 70 21.1 84 84 S 3 6 29.94 1014 10 16.0934 0 0
1:53 am 01:53 Cloudy 76 24.4 70 21.1 82 82 SW 6 9 29.94 1014 10 16.0934 0 0
2:08 am 02:08 Cloudy with Nearby Thunderstorms 76 24.4 70 21.1 82 82 undefined N/A 29.94 1014 10 16.0934 0 0
2:19 am 02:19 Cloudy 76 24.4 69 20.6 79 79 SW 10 17 29.95 1014 10 16.0934 0 0
2:30 am 02:30 Cloudy with Heavy Rain 74 23.3 69 20.6 85 85 SSW 10 17 29.95 1014 1.75 2.816345 0.2 5.08
2:42 am 02:42 Cloudy with Light Rain 73 22.8 69 20.6 87 87 SSE 8 13 29.96 1015 3 4.82802 0.29 7.366
2:53 am 02:53 Cloudy with Light Rain 73 22.8 69 20.6 87 87 SSE 8 13 29.97 1015 10 16.0934 0.3 7.62
3:53 am 03:53 Cloudy 72 22.2 69 20.6 91 91 Calm 29.97 1015 10 16.0934 0.001 0.001
4:03 am 04:03 Cloudy with Nearby Thunderstorms 72 22.2 69 20.6 91 91 WSW 6 9 29.95 1014 2.5 4.02335 0.05 1.27
4:12 am 04:12 Cloudy with Nearby Thunderstorms 72 22.2 69 20.6 91 91 W 10 17 29.95 1014 1.75 2.816345 0.14 3.556
4:20 am 04:20 Cloudy with Nearby Thunderstorms 72 22.2 69 20.6 91 91 SW 10 17 29.94 1014 3 4.82802 0.17 4.318
4:29 am 04:29 Mostly Cloudy with Light Rain 71 21.7 69 20.6 94 94 VRB 3 6 29.96 1014 7 11.26538 0.18 4.572
4:53 am 04:53 Mostly Cloudy with Light Rain 71 21.7 68 20 90 90 SW 7 11 29.94 1014 10 16.0934 0.18 4.572
5:53 am 05:53 Clear 71 21.7 68 20 90 90 Calm 29.94 1014 10 16.0934 0.001 0.001
6:53 am 06:53 Sunny 70 21.1 68 20 93 93 Calm 29.93 1014 9 14.48406 0 0
7:53 am 07:53 Sunny 72 22.2 69 20.6 91 91 Calm 29.95 1014 10 16.0934 0 0
8:53 am 08:53 Sunny 75 23.9 69 20.6 82 82 Calm 29.95 1014 10 16.0934 0 0
9:53 am 09:53 Mostly Cloudy 76 24.4 70 21.1 82 82 S 5 7 29.96 1015 10 16.0934 0 0
10:53 am 10:53 Partly Cloudy 80 26.7 71 21.7 74 74 VRB 3 6 29.96 1015 10 16.0934 0 0
11:53 am 11:53 Mostly Cloudy 80 26.7 72 22.2 76 76 SW 5 7 29.96 1014 10 16.0934 0 0
12:53 pm 12:53 Partly Cloudy 84 28.9 72 22.2 67 67 Calm 29.94 1014 10 16.0934 0 0
1:53 pm 13:53 Partly Cloudy 85 29.4 72 22.2 65 65 VRB 3 6 29.93 1014 10 16.0934 0 0
2:38 pm 14:38 Mostly Cloudy with Nearby Thunderstorms 84 28.9 73 22.8 70 70 SSE 5 7 29.91 1013 10 16.0934 0 0
2:53 pm 14:53 Partly Cloudy with Light Thunderstorms 84 28.9 72 22.2 67 67 VRB 5 7 29.92 1013 10 16.0934 0.001 0.001
3:12 pm 15:12 Mostly Cloudy with Light Thunderstorms 77 25 68 20 74 74 S 9 15 29.92 1013 10 16.0934 0.001 0.001
3:53 pm 15:53 Mostly Cloudy with Light Thunderstorms 73 22.8 67 19.4 81 81 SSW 10 17 29.9 1013 3 4.82802 0.22 5.588
4:53 pm 16:53 Cloudy with Light Thunderstorms 73 22.8 69 20.6 87 87 WNW 12 19 29.92 1013 4 6.43736 0.02 0.508
5:25 pm 17:25 Mostly Cloudy with Light Rain 73 22.8 70 21.1 90 90 SW 5 7 29.91 1013 7 11.26538 0.001 0.001
5:53 pm 17:53 Cloudy 74 23.3 71 21.7 91 91 Calm 29.9 1012 9 14.48406 0.01 0.254
6:53 pm 18:53 Sunny 78 25.6 70 21.1 76 76 Calm 29.89 1012 10 16.0934 0 0
7:53 pm 19:53 Partly Cloudy 77 25 71 21.7 82 82 Calm 29.89 1012 10 16.0934 0 0
8:53 pm 20:53 Sunny 74 23.3 72 22.2 94 94 WSW 3 6 29.89 1012 8 12.87472 0 0
9:53 pm 21:53 Clear 74 23.3 71 21.7 91 91 Calm 29.9 1012 9 14.48406 0 0
10:53 pm 22:53 Clear with Fog 70 21.1 69 20.6 97 97 S 5 7 29.91 1013 0.5 0.80467 0 0
11:04 pm 23:04 Clear with Mist and Fog 70 21.1 69 20.6 97 97 SSW 3 6 29.91 1013 2 3.21868 0 0
11:11 pm 23:11 Clear with Mist and Fog 71 21.7 70 21.1 96 96 Calm 29.91 1013 3 4.82802 0 0
11:22 pm 23:22 Clear with Mist and Fog 71 21.7 69 20.6 94 94 Calm 29.91 1013 2 3.21868 0 0
11:28 pm 23:28 Mostly Cloudy with Mist and Fog 70 21.1 69 20.6 97 97 Calm 29.91 1013 1 1.60934 0 0
11:42 pm 23:42 Mostly Clear with Mist and Fog 71 21.7 70 21.1 96 96 Calm 29.91 1013 1.5 2.41401 0 0
11:53 pm 23:53 Mostly Clear with Mist and Fog 71 21.7 70 21.1 96 96 Calm 29.91 1013 2 3.21868 0 0

Powered by AerisWeather